Location: Newark
(35.8833°N, 14.5000°E)
Time: 19:08:31
(UTC+00:00)

NOAA 15 - Visible Passes

Search period start: 19 May 2019 00:00
Search period end: 29 May 2019 00:00
Orbit: 798 x 812 km, 98.7° (Epoch: 19 May)

Date Brightness Start Highest point End Pass type
(mag) Time Alt. Az. Time Alt. Az. Time Alt. Az.
20 May 7.6 19:01:03 10° WSW 19:02:37 11° W 19:04:12 10° WNW visible
21 May 7.1 18:33:26 10° SW 18:37:20 21° W 18:41:15 10° NW visible
24 May 7.6 19:00:30 10° WSW 19:02:13 11° W 19:03:55 10° WNW visible
25 May 7.1 18:32:59 10° SW 18:36:55 21° W 18:40:52 10° NW visible
28 May 7.5 18:59:58 10° WSW 19:01:47 12° W 19:03:37 10° WNW visible
